Time,TemperatureF,DewpointF,PressureIn,WindDirection,WindDirectionDegrees,WindSpeedMPH,WindSpeedGustMPH,Humidity,HourlyPrecipIn,Conditions,Clouds,dailyrainin,SolarRadiationWatts/m^2,SoftwareType,DateUTC
2013-01-13 00:02:00,39.0,7.0,-100.00,WSW,256,3.0,9.0,26,0.00,,,0.00,501.000000,,2013-01-13 00:02:00,
2013-01-13 00:12:00,39.0,7.0,-100.00,WSW,256,3.0,9.0,26,0.00,,,0.00,501.000000,,2013-01-13 00:12:00,
2013-01-13 00:33:00,37.0,4.0,-100.00,West,272,2.0,9.0,24,0.00,,,0.00,271.000000,,2013-01-13 00:33:00,
2013-01-13 00:43:00,37.0,4.0,-100.00,West,272,2.0,9.0,24,0.00,,,0.00,271.000000,,2013-01-13 00:43:00,
2013-01-13 00:53:00,37.0,4.0,-100.00,West,272,2.0,9.0,24,0.00,,,0.00,271.000000,,2013-01-13 00:53:00,
2013-01-13 01:02:00,37.0,4.0,-100.00,West,272,2.0,9.0,24,0.00,,,0.00,271.000000,,2013-01-13 01:02:00,
2013-01-13 01:12:00,37.0,4.0,-100.00,West,272,2.0,9.0,24,0.00,,,0.00,271.000000,,2013-01-13 01:12:00,
2013-01-13 01:43:00,29.0,7.0,-100.00,NW,308,0.0,6.0,38,0.00,,,0.00,15.000000,,2013-01-13 01:43:00,
2013-01-13 01:53:00,29.0,7.0,-100.00,NW,308,0.0,6.0,38,0.00,,,0.00,15.000000,,2013-01-13 01:53:00,
2013-01-13 02:02:00,29.0,7.0,-100.00,NW,308,0.0,6.0,38,0.00,,,0.00,15.000000,,2013-01-13 02:02:00,
2013-01-13 02:12:00,29.0,7.0,-100.00,NW,308,0.0,6.0,38,0.00,,,0.00,15.000000,,2013-01-13 02:12:00,
2013-01-13 02:33:00,25.0,6.0,-100.00,ESE,115,0.0,0.0,44,0.00,,,0.00,0.000000,,2013-01-13 02:33:00,
2013-01-13 02:43:00,25.0,6.0,-100.00,ESE,115,0.0,0.0,44,0.00,,,0.00,0.000000,,2013-01-13 02:43:00,
2013-01-13 02:53:00,25.0,6.0,-100.00,ESE,115,0.0,0.0,44,0.00,,,0.00,0.000000,,2013-01-13 02:53:00,
2013-01-13 03:02:00,25.0,6.0,-100.00,ESE,115,0.0,0.0,44,0.00,,,0.00,0.000000,,2013-01-13 03:02:00,
2013-01-13 03:12:00,25.0,6.0,-100.00,ESE,115,0.0,0.0,44,0.00,,,0.00,0.000000,,2013-01-13 03:12:00,
2013-01-13 03:33:00,24.0,6.0,-100.00,ESE,107,0.0,5.0,46,0.00,,,0.00,0.000000,,2013-01-13 03:33:00,
2013-01-13 03:43:00,24.0,6.0,-100.00,ESE,107,0.0,5.0,46,0.00,,,0.00,0.000000,,2013-01-13 03:43:00,
2013-01-13 03:53:00,24.0,6.0,-100.00,ESE,107,0.0,5.0,46,0.00,,,0.00,0.000000,,2013-01-13 03:53:00,
2013-01-13 04:02:00,24.0,6.0,-100.00,ESE,107,0.0,5.0,46,0.00,,,0.00,0.000000,,2013-01-13 04:02:00,
2013-01-13 04:12:00,24.0,6.0,-100.00,ESE,107,0.0,5.0,46,0.00,,,0.00,0.000000,,2013-01-13 04:12:00,
2013-01-13 04:33:00,21.0,9.0,-100.00,SE,129,0.0,4.0,58,0.00,,,0.00,0.000000,,2013-01-13 04:33:00,
2013-01-13 04:43:00,21.0,9.0,-100.00,SE,129,0.0,4.0,58,0.00,,,0.00,0.000000,,2013-01-13 04:43:00,
2013-01-13 04:52:00,21.0,9.0,-100.00,SE,129,0.0,4.0,58,0.00,,,0.00,0.000000,,2013-01-13 04:52:00,
2013-01-13 05:03:00,21.0,9.0,-100.00,SE,129,0.0,4.0,58,0.00,,,0.00,0.000000,,2013-01-13 05:03:00,
2013-01-13 05:12:00,21.0,9.0,-100.00,SE,129,0.0,4.0,58,0.00,,,0.00,0.000000,,2013-01-13 05:12:00,
2013-01-13 05:33:00,21.0,7.0,-100.00,East,89,0.0,3.0,55,0.00,,,0.00,0.000000,,2013-01-13 05:33:00,
2013-01-13 05:42:00,21.0,7.0,-100.00,East,89,0.0,3.0,55,0.00,,,0.00,0.000000,,2013-01-13 05:42:00,
2013-01-13 05:53:00,21.0,7.0,-100.00,East,89,0.0,3.0,55,0.00,,,0.00,0.000000,,2013-01-13 05:53:00,
2013-01-13 06:02:00,21.0,7.0,-100.00,East,89,0.0,3.0,55,0.00,,,0.00,0.000000,,2013-01-13 06:02:00,
2013-01-13 06:12:00,21.0,7.0,-100.00,East,89,0.0,3.0,55,0.00,,,0.00,0.000000,,2013-01-13 06:12:00,
2013-01-13 06:33:00,19.0,9.0,-100.00,East,101,0.0,2.0,63,0.00,,,0.00,0.000000,,2013-01-13 06:33:00,
2013-01-13 06:42:00,19.0,9.0,-100.00,East,101,0.0,2.0,63,0.00,,,0.00,0.000000,,2013-01-13 06:42:00,
2013-01-13 06:52:00,19.0,9.0,-100.00,East,101,0.0,2.0,63,0.00,,,0.00,0.000000,,2013-01-13 06:52:00,
2013-01-13 07:02:00,19.0,9.0,-100.00,East,101,0.0,2.0,63,0.00,,,0.00,0.000000,,2013-01-13 07:02:00,
2013-01-13 07:12:00,19.0,9.0,-100.00,East,101,0.0,2.0,63,0.00,,,0.00,0.000000,,2013-01-13 07:12:00,
2013-01-13 07:33:00,19.0,10.0,-100.00,East,92,1.0,3.0,67,0.00,,,0.00,0.000000,,2013-01-13 07:33:00,
2013-01-13 07:42:00,19.0,10.0,-100.00,East,92,1.0,3.0,67,0.00,,,0.00,0.000000,,2013-01-13 07:42:00,
2013-01-13 07:52:00,19.0,10.0,-100.00,East,92,1.0,3.0,67,0.00,,,0.00,0.000000,,2013-01-13 07:52:00,
2013-01-13 08:02:00,19.0,10.0,-100.00,East,92,1.0,3.0,67,0.00,,,0.00,0.000000,,2013-01-13 08:02:00,
2013-01-13 08:11:00,19.0,10.0,-100.00,East,92,1.0,3.0,67,0.00,,,0.00,0.000000,,2013-01-13 08:11:00,
2013-01-13 08:42:00,18.0,9.0,-100.00,ESE,116,0.0,5.0,67,0.00,,,0.00,0.000000,,2013-01-13 08:42:00,
2013-01-13 08:52:00,18.0,9.0,-100.00,ESE,116,0.0,5.0,67,0.00,,,0.00,0.000000,,2013-01-13 08:52:00,
2013-01-13 09:02:00,18.0,9.0,-100.00,ESE,116,0.0,5.0,67,0.00,,,0.00,0.000000,,2013-01-13 09:02:00,
2013-01-13 09:11:00,18.0,9.0,-100.00,ESE,116,0.0,5.0,67,0.00,,,0.00,0.000000,,2013-01-13 09:11:00,
2013-01-13 09:32:00,20.0,9.0,-100.00,East,94,2.0,8.0,61,0.00,,,0.00,0.000000,,2013-01-13 09:32:00,
2013-01-13 09:42:00,20.0,9.0,-100.00,East,94,2.0,8.0,61,0.00,,,0.00,0.000000,,2013-01-13 09:42:00,
2013-01-13 09:52:00,20.0,9.0,-100.00,East,94,2.0,8.0,61,0.00,,,0.00,0.000000,,2013-01-13 09:52:00,
2013-01-13 10:02:00,20.0,9.0,-100.00,East,94,2.0,8.0,61,0.00,,,0.00,0.000000,,2013-01-13 10:02:00,
2013-01-13 10:11:00,20.0,9.0,-100.00,East,94,2.0,8.0,61,0.00,,,0.00,0.000000,,2013-01-13 10:11:00,
2013-01-13 10:32:00,19.0,8.0,-100.00,East,99,1.0,5.0,61,0.00,,,0.00,0.000000,,2013-01-13 10:32:00,
2013-01-13 10:42:00,19.0,8.0,-100.00,East,99,1.0,5.0,61,0.00,,,0.00,0.000000,,2013-01-13 10:42:00,
2013-01-13 10:52:00,19.0,8.0,-100.00,East,99,1.0,5.0,61,0.00,,,0.00,0.000000,,2013-01-13 10:52:00,
2013-01-13 11:02:00,19.0,8.0,-100.00,East,99,1.0,5.0,61,0.00,,,0.00,0.000000,,2013-01-13 11:02:00,
2013-01-13 11:11:00,19.0,8.0,-100.00,East,99,1.0,5.0,61,0.00,,,0.00,0.000000,,2013-01-13 11:11:00,
2013-01-13 11:42:00,19.0,9.0,-100.00,ESE,118,1.0,8.0,64,0.00,,,0.00,0.000000,,2013-01-13 11:42:00,
2013-01-13 11:52:00,19.0,9.0,-100.00,ESE,118,1.0,8.0,64,0.00,,,0.00,0.000000,,2013-01-13 11:52:00,
2013-01-13 12:02:00,19.0,9.0,-100.00,ESE,118,1.0,8.0,64,0.00,,,0.00,0.000000,,2013-01-13 12:02:00,
2013-01-13 12:12:00,19.0,9.0,-100.00,ESE,118,1.0,8.0,64,0.00,,,0.00,0.000000,,2013-01-13 12:12:00,
2013-01-13 12:33:00,20.0,8.0,-100.00,ESE,107,1.0,8.0,60,0.00,,,0.00,0.000000,,2013-01-13 12:33:00,
2013-01-13 12:42:00,20.0,8.0,-100.00,ESE,107,1.0,8.0,60,0.00,,,0.00,0.000000,,2013-01-13 12:42:00,
2013-01-13 12:53:00,20.0,8.0,-100.00,ESE,107,1.0,8.0,60,0.00,,,0.00,0.000000,,2013-01-13 12:53:00,
2013-01-13 13:02:00,20.0,8.0,-100.00,ESE,107,1.0,8.0,60,0.00,,,0.00,0.000000,,2013-01-13 13:02:00,
2013-01-13 13:12:00,20.0,8.0,-100.00,ESE,107,1.0,8.0,60,0.00,,,0.00,0.000000,,2013-01-13 13:12:00,
2013-01-13 13:33:00,21.0,7.0,-100.00,ENE,73,2.0,7.0,54,0.00,,,0.00,0.000000,,2013-01-13 13:33:00,
2013-01-13 13:43:00,21.0,7.0,-100.00,ENE,73,2.0,7.0,54,0.00,,,0.00,0.000000,,2013-01-13 13:43:00,
2013-01-13 13:53:00,21.0,7.0,-100.00,ENE,73,2.0,7.0,54,0.00,,,0.00,0.000000,,2013-01-13 13:53:00,
2013-01-13 14:02:00,21.0,7.0,-100.00,ENE,73,2.0,7.0,54,0.00,,,0.00,0.000000,,2013-01-13 14:02:00,
2013-01-13 14:12:00,21.0,7.0,-100.00,ENE,73,2.0,7.0,54,0.00,,,0.00,0.000000,,2013-01-13 14:12:00,
2013-01-13 14:33:00,20.0,7.0,-100.00,East,97,4.0,7.0,57,0.00,,,0.00,0.000000,,2013-01-13 14:33:00,
2013-01-13 14:43:00,20.0,7.0,-100.00,East,97,4.0,7.0,57,0.00,,,0.00,0.000000,,2013-01-13 14:43:00,
2013-01-13 14:53:00,20.0,7.0,-100.00,East,97,4.0,7.0,57,0.00,,,0.00,0.000000,,2013-01-13 14:53:00,
2013-01-13 15:02:00,20.0,7.0,-100.00,East,97,4.0,7.0,57,0.00,,,0.00,0.000000,,2013-01-13 15:02:00,
2013-01-13 15:12:00,20.0,7.0,-100.00,East,97,4.0,7.0,57,0.00,,,0.00,0.000000,,2013-01-13 15:12:00,
2013-01-13 15:33:00,21.0,7.0,-100.00,ESE,102,4.0,8.0,54,0.00,,,0.00,3.000000,,2013-01-13 15:33:00,
2013-01-13 15:43:00,21.0,7.0,-100.00,ESE,102,4.0,8.0,54,0.00,,,0.00,3.000000,,2013-01-13 15:43:00,
2013-01-13 15:53:00,21.0,7.0,-100.00,ESE,102,4.0,8.0,54,0.00,,,0.00,3.000000,,2013-01-13 15:53:00,
2013-01-13 16:03:00,21.0,7.0,-100.00,ESE,102,4.0,8.0,54,0.00,,,0.00,3.000000,,2013-01-13 16:03:00,
2013-01-13 16:12:00,21.0,7.0,-100.00,ESE,102,4.0,8.0,54,0.00,,,0.00,3.000000,,2013-01-13 16:12:00,
2013-01-13 16:33:00,32.0,10.0,-100.00,ESE,105,3.0,8.0,39,0.00,,,0.00,157.000000,,2013-01-13 16:33:00,
2013-01-13 17:12:00,32.0,10.0,-100.00,ESE,105,3.0,8.0,39,0.00,,,0.00,157.000000,,2013-01-13 17:12:00,
2013-01-13 17:43:00,38.0,11.0,-100.00,SE,130,2.0,9.0,33,0.00,,,0.00,400.000000,,2013-01-13 17:43:00,
2013-01-13 17:53:00,38.0,11.0,-100.00,SE,130,2.0,9.0,33,0.00,,,0.00,400.000000,,2013-01-13 17:53:00,
2013-01-13 18:12:00,38.0,11.0,-100.00,SE,130,2.0,9.0,33,0.00,,,0.00,400.000000,,2013-01-13 18:12:00,
2013-01-13 18:43:00,40.0,4.0,-100.00,West,280,1.0,8.0,22,-99.99,,,0.00,571.000000,,2013-01-13 18:43:00,
2013-01-13 18:53:00,40.0,4.0,-100.00,West,280,1.0,8.0,22,-99.99,,,0.00,571.000000,,2013-01-13 18:53:00,
2013-01-13 19:43:00,40.0,4.0,-100.00,West,281,3.0,10.0,22,0.00,,,0.00,651.000000,,2013-01-13 19:43:00,
2013-01-13 19:53:00,40.0,4.0,-100.00,West,281,3.0,10.0,22,0.00,,,0.00,651.000000,,2013-01-13 19:53:00,
2013-01-13 20:02:00,40.0,4.0,-100.00,West,281,3.0,10.0,22,0.00,,,0.00,651.000000,,2013-01-13 20:02:00,
2013-01-13 20:12:00,40.0,4.0,-100.00,West,281,3.0,10.0,22,0.00,,,0.00,651.000000,,2013-01-13 20:12:00,
2013-01-13 20:43:00,41.0,10.0,-100.00,West,275,5.0,11.0,27,0.00,,,0.00,783.000000,,2013-01-13 20:43:00,
2013-01-13 20:53:00,41.0,10.0,-100.00,West,275,5.0,11.0,27,0.00,,,0.00,783.000000,,2013-01-13 20:53:00,
2013-01-13 21:02:00,41.0,10.0,-100.00,West,275,5.0,11.0,27,0.00,,,0.00,783.000000,,2013-01-13 21:02:00,
2013-01-13 21:12:00,41.0,10.0,-100.00,West,275,5.0,11.0,27,0.00,,,0.00,783.000000,,2013-01-13 21:12:00,
2013-01-13 21:33:00,41.0,10.0,-100.00,West,267,4.0,11.0,27,0.00,,,0.00,768.000000,,2013-01-13 21:33:00,
2013-01-13 21:43:00,41.0,10.0,-100.00,West,267,4.0,11.0,27,0.00,,,0.00,768.000000,,2013-01-13 21:43:00,
2013-01-13 21:53:00,41.0,10.0,-100.00,West,267,4.0,11.0,27,0.00,,,0.00,768.000000,,2013-01-13 21:53:00,
2013-01-13 22:02:00,41.0,10.0,-100.00,West,267,4.0,11.0,27,0.00,,,0.00,768.000000,,2013-01-13 22:02:00,
2013-01-13 22:12:00,41.0,10.0,-100.00,West,267,4.0,11.0,27,0.00,,,0.00,768.000000,,2013-01-13 22:12:00,
2013-01-13 23:43:00,37.0,5.0,-100.00,West,281,5.0,13.0,26,-99.99,,,0.00,430.000000,,2013-01-13 23:43:00,
2013-01-13 23:53:00,37.0,5.0,-100.00,West,281,5.0,13.0,26,-99.99,,,0.00,430.000000,,2013-01-13 23:53:00,